GW0582 Weather Reports


time (UTC)temp
C
wind
direction
speed
KPH
gust
KPH
rain 1hr
cm
rain 24hr
cm
rain mn
cm
humidity
%
barometer
mb
20260504151029 22 0 0.0 9.7 0.00 0.00 0.00 63 1018.7
20260504150529 22 348 3.2 9.7 0.00 0.00 0.00 61 1018.7
20260504141029 20 0 0.0 4.8 0.00 0.00 0.00 74 1018.8
20260504140529 20 129 0.0 4.8 0.00 0.00 0.00 75 1018.8
20260504130529 15 176 1.6 3.2 0.00 0.00 0.00 92 1018.7
20260504110526 10 105 0.0 0.0 0.00 0.00 0.00 100 1017.9
20260504100526 11 0 0.0 1.6 0.00 0.00 0.00 99 1018.3
20260504090108 11 0 0.0 1.6 0.00 0.00 0.00 98 1018.1
20260504081541 12 0 0.0 1.6 0.00 0.00 0.00 97 1018.2
20260504081028 12 0 0.0 1.6 0.00 0.00 0.00 97 1018.3
20260504080528 12 0 0.0 1.6 0.00 0.00 0.00 97 1018.3
20260504050533 14 0 0.0 0.0 0.00 0.00 0.00 89 1019.6
20260504045531 14 0 0.0 0.0 0.00 0.00 0.00 90 1019.6
20260504045030 14 0 0.0 0.0 0.00 0.00 0.00 90 1019.8
20260504044558 14 0 0.0 0.0 0.00 0.00 0.00 88 1019.7
20260504044030 14 0 0.0 0.0 0.00 0.00 0.00 87 1019.7
20260504043530 14 0 0.0 0.0 0.00 0.00 0.00 87 1019.8
20260504043046 14 0 0.0 0.0 0.00 0.00 0.00 88 1019.8
20260504042529 15 0 0.0 0.0 0.00 0.00 0.00 87 1019.8
20260504042030 15 0 0.0 0.0 0.00 0.00 0.00 86 1019.8
20260504041541 14 0 0.0 1.6 0.00 0.00 0.00 90 1019.8
20260504041030 13 0 0.0 1.6 0.00 0.00 0.00 91 1019.8
20260504040532 13 0 0.0 0.0 0.00 0.00 0.00 91 1019.8
20260504040043 13 0 0.0 0.0 0.00 0.00 0.00 90 1019.7
20260504035530 13 0 0.0 0.0 0.00 0.00 0.00 90 1019.8
20260504035029 13 0 0.0 0.0 0.00 0.00 0.00 90 1019.7
20260504034551 14 0 0.0 0.0 0.00 0.00 0.00 90 1019.8
20260504034030 14 0 0.0 0.0 0.00 0.00 0.00 90 1019.8
20260504033530 14 0 0.0 0.0 0.00 0.00 0.00 89 1019.8
20260504033054 14 0 0.0 0.0 0.00 0.00 0.00 89 1019.7
20260504032530 14 0 0.0 0.0 0.00 0.00 0.00 88 1019.8
20260504032032 15 0 0.0 0.0 0.00 0.00 0.00 88 1019.7
20260504031542 15 0 0.0 0.0 0.00 0.00 0.00 87 1019.8
20260504031030 15 0 0.0 1.6 0.00 0.00 0.00 86 1019.8
20260504030530 15 0 0.0 3.2 0.00 0.00 0.00 86 1019.8
20260504030046 15 0 0.0 3.2 0.00 0.00 0.00 86 1019.7
20260504025531 15 79 0.0 1.6 0.00 0.00 0.00 86 1019.6
20260504025033 15 0 0.0 0.0 0.00 0.00 0.00 86 1019.5
20260504024547 15 0 0.0 0.0 0.00 0.00 0.00 86 1019.5
20260504024030 15 0 0.0 0.0 0.00 0.00 0.00 85 1019.5
20260504023528 15 0 0.0 0.0 0.00 0.00 0.00 85 1019.5
20260504023043 15 0 0.0 0.0 0.00 0.00 0.00 84 1019.4
20260504022528 15 0 0.0 0.0 0.00 0.00 0.00 83 1019.4
20260504022028 15 0 0.0 0.0 0.00 0.00 0.00 83 1019.3
20260504021542 15 0 0.0 0.0 0.00 0.00 0.00 83 1019.3
20260504021028 15 0 0.0 0.0 0.00 0.00 0.00 83 1019.1
20260504020528 16 0 0.0 0.0 0.00 0.00 0.00 82 1019.1
20260504020041 16 0 0.0 0.0 0.00 0.00 0.00 82 1019.1
20260504015528 15 0 0.0 0.0 0.00 0.00 0.00 83 1019.0
20260504015031 15 0 0.0 0.0 0.00 0.00 0.00 83 1019.0
20260504014547 16 0 0.0 0.0 0.00 0.00 0.00 80 1018.9
20260504014028 16 0 0.0 0.0 0.00 0.00 0.00 79 1018.9
20260504013529 16 0 0.0 0.0 0.00 0.00 0.00 79 1019.0
20260504013049 16 0 0.0 0.0 0.00 0.00 0.00 77 1018.9
20260504012529 17 0 0.0 1.6 0.00 0.00 0.00 77 1018.8
20260504012031 17 0 0.0 1.6 0.00 0.00 0.00 77 1018.7
20260504011545 17 0 0.0 0.0 0.00 0.00 0.00 75 1018.7
20260504011028 17 0 0.0 0.0 0.00 0.00 0.00 75 1018.7
20260504010528 17 0 0.0 0.0 0.00 0.00 0.00 71 1018.6
20260504010052 18 0 0.0 0.0 0.00 0.00 0.00 71 1018.7
20260504005528 18 0 0.0 0.0 0.00 0.00 0.00 70 1018.7
20260504005028 18 0 0.0 0.0 0.00 0.00 0.00 67 1018.6
20260504004542 20 0 0.0 1.6 0.00 0.00 0.00 64 1018.5
20260504004028 20 0 0.0 1.6 0.00 0.00 0.00 61 1018.5
20260504003528 20 0 0.0 4.8 0.00 0.00 0.00 60 1018.5
20260504003047 21 0 0.0 4.8 0.00 0.00 0.00 60 1018.5
20260504002528 21 0 0.0 6.4 0.00 0.00 0.00 54 1018.5
20260504002028 22 110 3.2 6.4 0.00 0.00 0.00 54 1018.5
20260504001605 22 106 0.0 4.8 0.00 0.00 0.00 52 1018.4
20260504001028 22 0 0.0 9.7 0.00 0.00 0.00 52 1018.4
20260504000530 22 0 1.6 9.7 0.00 0.00 0.00 52 1018.4
20260504000045 22 62 4.8 11.3 0.00 0.00 0.00 51 1018.4
20260503235528 22 0 3.2 11.3 0.00 0.00 0.00 51 1018.4
20260503235029 22 75 4.8 11.3 0.00 0.00 0.00 50 1018.5
20260503234544 22 87 4.8 11.3 0.00 0.00 0.00 50 1018.5
20260503234029 22 48 4.8 11.3 0.00 0.00 0.00 49 1018.5
20260503233528 22 93 6.4 11.3 0.00 0.00 0.00 50 1018.6
20260503233041 23 0 1.6 11.3 0.00 0.00 0.00 49 1018.6
20260503232528 22 84 3.2 11.3 0.00 0.00 0.00 49 1018.6
20260503232030 22 89 8.0 14.5 0.00 0.00 0.00 48 1018.6
20260503231541 22 0 6.4 19.3 0.00 0.00 0.00 49 1018.6
20260503231030 22 44 4.8 19.3 0.00 0.00 0.00 49 1018.5
20260503230531 22 31 8.0 17.7 0.00 0.00 0.00 49 1018.6
20260503230048 22 56 9.7 17.7 0.00 0.00 0.00 49 1018.6
20260503225530 23 42 11.3 17.7 0.00 0.00 0.00 49 1018.6
20260503225030 23 68 8.0 16.1 0.00 0.00 0.00 49 1018.7
20260503224545 23 26 9.7 16.1 0.00 0.00 0.00 48 1018.8
20260503224030 22 58 11.3 19.3 0.00 0.00 0.00 47 1018.8
20260503223530 23 20 11.3 19.3 0.00 0.00 0.00 47 1018.7
20260503223046 23 66 11.3 19.3 0.00 0.00 0.00 47 1018.7
20260503222529 23 61 8.0 14.5 0.00 0.00 0.00 47 1018.7
20260503222029 23 53 8.0 19.3 0.00 0.00 0.00 46 1018.7
20260503221544 23 68 8.0 19.3 0.00 0.00 0.00 46 1018.8
20260503221030 23 65 4.8 19.3 0.00 0.00 0.00 45 1018.9
20260503220530 23 94 6.4 16.1 0.00 0.00 0.00 45 1019.0
20260503220103 23 76 9.7 24.1 0.00 0.00 0.00 45 1019.1
20260503215529 23 0 8.0 24.1 0.00 0.00 0.00 45 1019.1
20260503215029 23 104 11.3 24.1 0.00 0.00 0.00 45 1019.2
20260503214549 23 90 6.4 17.7 0.00 0.00 0.00 44 1019.1
20260503214030 23 89 8.0 17.7 0.00 0.00 0.00 44 1019.2
20260503213534 23 49 6.4 16.1 0.00 0.00 0.00 44 1019.2
20260503213042 23 44 8.0 12.9 0.00 0.00 0.00 44 1019.2
20260503212531 23 100 6.4 20.9 0.00 0.00 0.00 44 1019.4
20260503212030 23 44 11.3 20.9 0.00 0.00 0.00 44 1019.5
20260503211601 23 345 8.0 16.1 0.00 0.00 0.00 43 1019.5
20260503211030 23 20 8.0 17.7 0.00 0.00 0.00 45 1019.5
20260503210530 23 353 6.4 17.7 0.00 0.00 0.00 44 1019.6
20260503210049 23 58 8.0 17.7 0.00 0.00 0.00 45 1019.8
20260503205530 23 66 11.3 20.9 0.00 0.00 0.00 44 1019.8
20260503205032 23 76 8.0 22.5 0.00 0.00 0.00 44 1019.7
20260503204542 23 29 9.7 22.5 0.00 0.00 0.00 45 1019.9
20260503204029 23 333 9.7 20.9 0.00 0.00 0.00 46 1020.0
20260503203529 23 46 11.3 20.9 0.00 0.00 0.00 45 1020.0
20260503203050 23 76 4.8 24.1 0.00 0.00 0.00 44 1020.0
20260503202530 23 74 9.7 24.1 0.00 0.00 0.00 45 1020.1
20260503202030 23 39 4.8 17.7 0.00 0.00 0.00 44 1020.1
20260503201542 23 73 6.4 20.9 0.00 0.00 0.00 44 1020.2
20260503201029 23 52 11.3 20.9 0.00 0.00 0.00 44 1020.4
20260503200529 24 144 9.7 17.7 0.00 0.00 0.00 42 1020.4
20260503200042 24 0 4.8 16.1 0.00 0.00 0.00 43 1020.4
20260503195530 25 127 1.6 20.9 0.00 0.00 0.00 39 1020.5
20260503195029 24 61 6.4 20.9 0.00 0.00 0.00 43 1020.5
20260503194545 25 137 1.6 9.7 0.00 0.00 0.00 38 1020.6
20260503194029 24 0 0.0 9.7 0.00 0.00 0.00 37 1020.7
20260503193532 24 32 3.2 9.7 0.00 0.00 0.00 39 1020.8
20260503193049 24 130 6.4 9.7 0.00 0.00 0.00 37 1020.9
20260503192530 24 0 3.2 9.7 0.00 0.00 0.00 41 1020.9
20260503192030 25 300 3.2 14.5 0.00 0.00 0.00 41 1021.0
20260503191542 24 285 8.0 14.5 0.00 0.00 0.00 41 1021.1
20260503191030 24 47 4.8 16.1 0.00 0.00 0.00 43 1021.2
20260503190530 23 61 4.8 16.1 0.00 0.00 0.00 41 1021.3
20260503190042 23 67 3.2 12.9 0.00 0.00 0.00 39 1021.3
20260503185529 24 130 1.6 16.1 0.00 0.00 0.00 39 1021.4
20260503185030 23 0 4.8 16.1 0.00 0.00 0.00 41 1021.5
20260503184542 23 150 3.2 14.5 0.00 0.00 0.00 39 1021.6
20260503184030 23 164 9.7 14.5 0.00 0.00 0.00 39 1021.7
20260503183529 25 217 3.2 11.3 0.00 0.00 0.00 40 1021.7
20260503183043 24 348 0.0 9.7 0.00 0.00 0.00 40 1021.8
20260503182529 24 343 0.0 9.7 0.00 0.00 0.00 41 1021.7
20260503182030 24 111 1.6 6.4 0.00 0.00 0.00 40 1021.7
20260503181617 23 77 1.6 6.4 0.00 0.00 0.00 39 1021.8
20260503181031 23 61 3.2 11.3 0.00 0.00 0.00 38 1021.9
20260503180532 23 254 1.6 12.9 0.00 0.00 0.00 41 1021.9
20260503180054 23 203 6.4 12.9 0.00 0.00 0.00 42 1022.0
20260503175529 23 0 4.8 11.3 0.00 0.00 0.00 40 1022.0
20260503175029 23 197 3.2 16.1 0.00 0.00 0.00 40 1022.1
20260503174542 22 0 6.4 16.1 0.00 0.00 0.00 42 1022.2
20260503174032 22 94 6.4 12.9 0.00 0.00 0.00 40 1022.3
20260503173530 22 154 3.2 12.9 0.00 0.00 0.00 40 1022.4
20260503173053 22 110 3.2 12.9 0.00 0.00 0.00 39 1022.5
20260503172529 22 184 6.4 12.9 0.00 0.00 0.00 42 1022.6
20260503172029 22 195 6.4 12.9 0.00 0.00 0.00 41 1022.8
20260503171540 22 225 3.2 11.3 0.00 0.00 0.00 43 1022.7
20260503171029 22 0 0.0 12.9 0.00 0.00 0.00 43 1022.7
20260503170529 22 63 4.8 16.1 0.00 0.00 0.00 43 1022.8